Location: *
(48.8489°N, 2.3218°E)
Time: 10:28:23
(UTC+00:00)

Cosmos 1536 - Pass Details

Date: 23 August 2019
Orbit: 540 x 559 km, 82.5° (Epoch: 18 September)

Event Time Altitude Azimuth Distance (km) Brightness Sun altitude
Exits shadow 21:09:27 12° 211° (SSW) 1,736 5.2 -19.8°
Maximum altitude 21:13:05 46° 284° (WNW) 765 3.9 -20.3°
Drops below altitude 10° 21:17:02 10° 358° (N) 1,857 6.2 -20.7°
Sets 21:19:17 0° 5° (N) 2,755 7.0 -20.9°
